Regional Weather Roundup
Issued by NWS Midland/Odessa, TX

Skip options and go directly to product.
Home | Oldest Version | Previous Version | Current Version | All | Graphics & Text | Save Text | Print | Product List | Glossary On

Skip product version selection by date and time.   
365
ASUS44 KMAF 010910
RWRMAF
MIDLAND AREA WEATHER ROUNDUP
NATIONAL WEATHER SERVICE MIDLAND TX
400 AM CDT SUN MAY 01 2016

...IN SOUTHWEST TEXAS AND SOUTHEAST NEW MEXICO...

CITY           SKY/WX    TMP DP  RH WIND       PRES   REMARKS
ALPINE         CLEAR     62  29  29 S7        29.87R
ANDREWS        MOCLDY    54  39  55 NE25G32   29.95R
ARTESIA        CLOUDY    52  34  50 NE24G31   30.01R
BIG SPRING     CLEAR     55  42  62 NE22G29   29.95R
CARLSBAD       CLOUDY    59  40  49 NE23G32   29.92R
DRYDEN           N/A     68  48  48 E15       29.77R
FORT STOCKTON  CLEAR     62  37  39 E15       29.79S
GUAD PASS      CLEAR     54  34  46 NE46G53   29.86F
HOBBS          MOCLDY    50  36  57 NE26G36   29.98R
MARFA          CLEAR     42  24  49 N6        29.85S WCI  38
MIDLAND AIRPK  PTCLDY    59  45  59 NE22      29.93R
MIDLAND INTL   CLEAR     59  47  64 NE25G33   29.90R
ODESSA         CLEAR     59  46  62 NE22G30   29.91R
PECOS          CLEAR     63  40  43 NE17G25   29.79R
PRESIDIO       FAIR      69  24  18 N6        29.72S
SEMINOLE       MOCLDY    52  37  55 NE21G30   29.99R
SNYDER           N/A     54  41  61 N16G24    29.98S
WINK           CLOUDY    62  44  51 NE26G35   29.83R
$$
...OTHER STATIONS IN TEXAS...

CITY           SKY/WX    TMP DP  RH WIND       PRES   REMARKS
ABILENE        CLEAR     56  49  77 N7        29.96R
AMARILLO       CLOUDY    41  33  73 N21G32    30.10S WCI  32
AUSTIN         CLEAR     67  64  90 NE9       29.81F
BROWNSVILLE    CLOUDY    78  77  96 E6        29.70F FOG
CORPUS CHRISTI CLOUDY    78  74  87 E6        29.73S
DALLAS FTW     CLEAR     62  56  80 N13       29.89R
DEL RIO        CLEAR     63  58  83 CALM      29.76R
EL PASO        PTCLDY    67  18  15 W15       29.78S
HOUSTON INT    CLOUDY    73  73 100 N13       29.79S
LUBBOCK        MOCLDY    47  33  58 NE20G26   30.04R WCI  40
SAN ANGELO     CLEAR     58  53  84 NE7       29.87S
SAN ANTONIO    MOCLDY    69  64  84 NE9       29.79F
WACO           CLEAR     61  58  90 NE5       29.86S
WICHITA FALLS  NOT AVBL
$$
...OTHER LOCATIONS IN NEW MEXICO...

CITY           SKY/WX    TMP DP  RH WIND       PRES   REMARKS
ALAMAGORDO     MOCLDY    63  27  25 CALM      29.79R
ALBUQUERQUE    CLOUDY    43  32  65 E32G46    29.92S WCI  32
CANNON AFB     CLOUDY    40  33  76 NE37G43   30.07S WCI  27
CLOVIS         MOCLDY    39  32  75 N24G31    30.09F WCI  28
HOLLOMAN AFB   CLOUDY    62  17  17 N1        29.79R
ROSWELL        CLOUDY    49  33  54 NE20G29   30.01R
RUIDOSO          N/A     36  32  87 S10       30.06S WCI  28
SANTA FE       CLOUDY    41  38  89 CALM      29.99R
TRUTH OR CONSE MOCLDY    53  38  56 N22G28    29.82R
TUCUMCARI      CLOUDY    40  34  79 NE8       30.13R WCI  34
$$

USA.gov is the U.S. government's official web portal to all federal, state and local government web resources and services.